[[{"header":{"parameterUnit":"m.s-1","parameterCategory":1,"la1":30.2991,"la2":30.254,"lo1":-89.0895,"lo2":-89.0444,"dy":0.0017,"dx":0.0017,"nx":28,"ny":28,"refTime":"2024-12-14T09:00:00:Z","depth":0,"parameterNumber":2,"parameterNumberName":"U-component_of_WINDS"},"data":[0,0,0,0,0,0,0,0,0,0,0,0,0,0,0,0,0,0,0,0,0,0,0,0,0,0,0,0,0,0,0,0,0,0,0,0,0,0,0,0,0,0,0,0,0,0,0,0,0,0,0,0,0,0,0,0,0,0,-6.8214,-6.8215,0,-6.8236,-6.8236,-6.8236,-6.8118,-6.8115,-6.8111,-6.8108,-6.8128,-6.8131,-6.8135,0,0,0,0,0,0,0,0,0,0,0,0,0,-6.807,-6.8073,-6.8214,-6.8215,-6.8215,-6.8236,-6.8236,-6.8236,-6.8119,-6.8114,-6.811,-6.8107,-6.8126,-6.8131,-6.8135,0,0,0,0,0,0,0,0,0,0,0,0,0,-6.8116,-6.8074,-6.8214,-6.8159,-6.8154,-6.8236,-6.8236,-6.8237,-6.8119,-6.8114,-6.8109,-6.8105,-6.8125,-6.813,-6.8136,-6.8271,0,0,-6.8153,-6.8155,0,0,0,0,0,0,0,0,-6.8114,-6.8121,-6.8167,-6.8163,-6.8158,-6.8169,-6.8192,-6.8248,-6.8121,-6.8133,-6.8108,-6.8102,-6.8145,-6.8149,-6.8164,-6.8272,-6.8273,-6.8153,-6.8156,-6.8159,-6.816,0,0,0,0,0,0,0,-6.8111,-6.812,-6.8223,-6.8167,-6.8162,-6.8132,-6.8133,-6.8202,-6.8167,-6.8131,-6.8123,-6.8127,-6.8142,-6.8159,-6.8164,-6.8273,-6.8153,-6.8158,-6.8161,-6.8163,-6.8494,-6.8499,0,0,0,0,0,0,-6.8115,-6.8118,-6.8222,-6.8223,-6.8123,-6.8139,-6.814,-6.8171,-6.8166,-6.816,-6.8131,-6.8121,-6.8152,-6.8157,-6.8164,-6.8321,-6.8159,-6.8164,-6.8167,-6.8488,-6.8495,-6.8501,0,0,0,0,0,0,-6.8112,-6.8125,-6.8221,-6.8169,-6.8178,-6.8147,-6.8182,-6.8174,-6.819,-6.8166,-6.8159,-6.8155,-6.8148,-6.8156,-6.8246,-6.832,-6.8166,-6.8171,-6.8482,-6.8491,-6.8498,-6.8639,0,0,0,0,0,0,-6.8109,-6.8125,-6.8177,-6.8171,-6.8182,-6.8304,-6.8187,-6.8178,-6.8201,-6.8188,-6.8187,-6.8182,-6.8145,-6.8238,-6.8251,-6.8325,-6.8176,-6.8475,-6.8486,-6.8495,-6.8627,-6.8651,-6.8671,0,0,0,0,0,-6.8104,-6.8215,-6.818,-6.8193,-6.8245,-6.8308,-6.8314,-6.827,-6.8207,-6.8258,-6.8243,-6.8182,-6.8311,-6.8248,-6.8262,-6.8339,-6.847,-6.8483,-6.8495,-6.8617,-6.8646,-6.867,0,0,0,0,0,0,-6.8229,-6.8213,-6.8174,-6.8286,-6.83,-6.8288,-6.8351,-6.8302,-6.8333,-6.832,-6.8263,-6.8264,-6.8363,-6.836,-6.8291,-6.847,-6.8379,-6.8395,-6.8468,-6.8495,-6.8516,-6.8514,-6.818,0,0,0,0,0,-6.827,-6.8323,-6.8306,-6.8406,-6.8415,-6.8383,-6.8408,-6.8374,-6.8385,-6.8389,-6.838,-6.8393,-6.8436,-6.8466,-6.8504,-6.8627,-6.8625,-6.8687,-6.8709,-6.8727,-6.874,-6.8805,-6.8832,-6.8541,-6.8541,-6.8541,0,0,-6.8354,-6.8352,-6.8388,-6.8431,-6.8438,-6.8493,-6.8388,-6.8451,-6.8491,-6.8398,-6.8482,-6.8477,-6.8487,-6.8594,-6.8641,-6.8594,-6.8821,-6.8743,-6.8757,-6.8761,-6.882,-6.8848,-6.8872,-6.855,-6.8548,-6.8547,0,0,-6.8535,-6.854,-6.8624,-6.8633,-6.8645,-6.8623,-6.8643,-6.864,-6.8633,-6.8717,-6.8648,-6.8696,-6.8772,-6.8782,-6.8797,-6.8985,-6.893,-6.9,-6.9113,-6.9176,-6.9199,-6.9219,-6.9285,-6.9309,-6.9014,-6.9014,-6.9014,0,-6.8638,-6.8719,-6.8673,-6.8741,-6.8762,-6.8683,-6.8767,-6.8778,-6.8802,-6.8818,-6.8766,-6.886,-6.8862,-6.897,-6.9016,-6.9032,-6.9052,-6.8998,-6.92,-6.9219,-6.9237,-6.9299,-6.9324,-6.9022,-6.9021,-6.9021,-6.902,0,-6.8845,-6.8903,-6.8969,-6.8995,-6.9024,-6.91,-6.9065,-6.9099,-6.9063,-6.9047,-6.9133,-6.9133,-6.917,-6.9193,-6.9158,-6.9297,-6.9268,-6.921,-6.9116,-6.9274,-6.9331,-6.9355,-6.9034,-6.9031,-6.9029,-6.9027,0,0,-6.9102,-6.9104,-6.9129,-6.914,-6.9148,-6.9191,-6.9264,-6.9302,-6.9332,-6.9352,-6.941,-6.9478,-6.9424,-6.9442,-6.9407,-6.9464,-6.9612,-6.9398,-6.9397,-6.9436,-6.9763,-6.9806,-6.9834,-6.9576,-6.9581,-6.9584,-6.9762,0,-6.9278,-6.9403,-6.9365,-6.949,-6.9542,-6.947,-6.9533,-6.9545,-6.9532,-6.9574,-6.956,-6.9608,-6.9534,-6.9544,-6.9597,-6.9583,-6.9676,-6.957,-6.9629,-6.9632,-6.9626,-6.9864,-6.9909,-7.0076,-6.9784,-6.9788,-6.9791,0,-6.9499,-6.9529,-6.9661,-6.9661,-6.9682,-6.9739,-6.9771,-6.9813,-6.9825,-6.9812,-6.9833,-6.9788,-6.9858,-6.9768,-6.9865,-6.9793,-6.9816,-6.9813,-6.9818,-6.982,-6.9719,-6.987,-7.0128,-7.0153,-6.9826,-6.9823,-6.982,0,-6.9672,-6.9745,-6.9833,-6.9845,-6.9848,-6.989,-6.9894,-6.9901,-6.9926,-6.9954,-6.997,-7.0006,-7.0025,-7.0054,-7.0019,-6.9957,-7.0121,-7.0027,-7.011,-7.0111,-7.0145,-7.0143,-7.0409,-7.0165,-7.0164,-7.0164,-7.0163,0,-6.9871,-6.9954,-6.9911,-6.9965,-7.0055,-7.0011,-7.0102,-7.0096,-7.0104,-7.0155,-7.0095,-7.0144,-7.0097,-7.0141,-7.0115,-7.0198,-7.0208,-7.0198,-7.019,-7.0202,-7.0203,-7.0214,-7.0201,-7.017,-7.0169,-7.0168,-7.0166,0,-7.0077,-7.0052,-7.0143,-7.014,-7.0141,-7.0208,-7.0204,-7.0254,-7.0238,-7.0303,-7.0316,-7.0291,-7.0341,-7.031,-7.036,-7.0342,-7.0451,-7.0428,-7.0447,-7.044,-7.0523,-7.0515,-7.0803,-7.0838,-7.0574,-7.0577,-7.0579,0,-7.0205,-7.0267,-7.0271,-7.0302,-7.0309,-7.0359,-7.0385,-7.0345,-7.0375,-7.0395,-7.0442,-7.0487,-7.052,-7.0603,-7.0588,-7.0627,-7.0602,-7.0701,-7.0607,-7.0618,-7.0601,-7.0597,-7.0602,-7.0719,-7.0722,-7.0724,-7.0726,0,-7.0433,-7.0418,-7.0458,-7.0496,-7.0529,-7.0556,-7.0578,-7.0606,-7.0566,-7.0603,-7.0653,-7.068,-7.0732,-7.0777,-7.081,-7.0812,-7.0763,-7.0757,-7.0777,-7.0789,-7.0797,-7.0792,-7.0496,-7.0749,-7.0747,-7.0745,-7.0744,-7.0743,-7.0602,-7.0654,-7.0665,-7.0713,-7.0726,-7.0748,-7.0794,-7.0786,-7.0828,-7.0867,-7.0842,-7.0902,-7.0913,-7.0952,-7.0961,-7.1007,-7.0967,-7.0997,-7.1005,-7.1012,-7.1023,-7.0793,-7.1013,-7.1012,-7.1012,-7.1011,-7.1011,0,-7.0825,-7.0829,-7.0874,-7.0907,-7.0945,-7.0898,-7.092,-7.0954,-7.1008,-7.1024,-7.1059,-7.1118,-7.1162,-7.1153,-7.1192,-7.1231,-7.1209,-7.1242,-7.1237,-7.1238,-7.1057,-7.1034,-7.1259,-7.1259,-7.1259,-7.1259,-7.1259,-7.1259,-7.0945,-7.103,-7.1017,-7.1109,-7.1112,-7.1171,-7.1188,-7.1208,-7.1221,-7.1289,-7.1326,-7.1321,-7.1326,-7.1366,-7.1404,-7.14,-7.1417,-7.1458,-7.1446,-7.1276,-7.1251,-7.1228,-7.1206,-7.1463,-7.1463,-7.1622,-7.1624,-7.1625]},{"header":{"parameterUnit":"m.s-1","parameterCategory":1,"la1":30.2991,"la2":30.254,"lo1":-89.0895,"lo2":-89.0444,"dy":0.0017,"dx":0.0017,"nx":28,"ny":28,"refTime":"2024-12-14T09:00:00:Z","depth":0,"parameterNumber":3,"parameterNumberName":"V-component_of_WINDS"},"data":[0,0,0,0,0,0,0,0,0,0,0,0,0,0,0,0,0,0,0,0,0,0,0,0,0,0,0,0,0,0,0,0,0,0,0,0,0,0,0,0,0,0,0,0,0,0,0,0,0,0,0,0,0,0,0,0,0,0,0.9764,0.9764,0,0.9797,0.9798,0.9798,0.9865,0.9866,0.9867,0.9869,0.9898,0.9898,0.9897,0,0,0,0,0,0,0,0,0,0,0,0,0,0.9755,0.9754,0.9764,0.9764,0.9765,0.9797,0.9798,0.9798,0.9865,0.9866,0.9868,0.9869,0.9898,0.9898,0.9897,0,0,0,0,0,0,0,0,0,0,0,0,0,0.977,0.9754,0.9764,0.9802,0.9806,0.9797,0.9798,0.9798,0.9864,0.9866,0.9868,0.987,0.9899,0.9898,0.9897,0.9853,0,0,0.9895,0.9895,0,0,0,0,0,0,0,0,0.9769,0.977,0.9796,0.9799,0.9803,0.9829,0.9805,0.9816,0.9864,0.9842,0.9869,0.9871,0.9873,0.9875,0.9877,0.9854,0.9856,0.9895,0.9895,0.9894,0.9894,0,0,0,0,0,0,0,0.9768,0.9769,0.9777,0.9796,0.9801,0.9816,0.9821,0.9808,0.9846,0.9844,0.9849,0.9852,0.9876,0.9877,0.9878,0.9856,0.9895,0.9895,0.9894,0.9894,0.9802,0.98,0,0,0,0,0,0,0.9762,0.9768,0.9776,0.9778,0.9791,0.9815,0.982,0.9819,0.9846,0.9852,0.985,0.9855,0.9877,0.9878,0.9879,0.9831,0.9894,0.9894,0.9893,0.9804,0.9802,0.9799,0,0,0,0,0,0,0.9761,0.9762,0.9774,0.9774,0.9777,0.9813,0.9811,0.9818,0.982,0.9851,0.9858,0.9845,0.9879,0.988,0.986,0.9833,0.9893,0.9893,0.9806,0.9803,0.98,0.9734,0,0,0,0,0,0,0.9761,0.9761,0.9745,0.9774,0.9777,0.9755,0.9809,0.9817,0.9819,0.9825,0.9848,0.9853,0.9881,0.9861,0.9859,0.9833,0.9892,0.9809,0.9805,0.9801,0.9739,0.9729,0.9721,0,0,0,0,0,0.976,0.9724,0.9744,0.9745,0.9758,0.9754,0.9756,0.9789,0.9816,0.9801,0.9821,0.9853,0.9836,0.9858,0.9857,0.983,0.9811,0.9806,0.9802,0.9743,0.9731,0.9721,0,0,0,0,0,0,0.9689,0.9728,0.9751,0.9723,0.9735,0.9765,0.9746,0.9775,0.9778,0.9784,0.9823,0.9828,0.9803,0.9814,0.9838,0.979,0.9829,0.9824,0.9784,0.9773,0.9764,0.9763,0.9892,0,0,0,0,0,0.9671,0.9665,0.9699,0.967,0.9676,0.971,0.9709,0.9734,0.9747,0.9752,0.9771,0.9782,0.9779,0.9776,0.9776,0.974,0.9747,0.9722,0.9713,0.9705,0.9701,0.9685,0.9675,0.9784,0.9784,0.9785,0,0,0.9632,0.9652,0.9646,0.9657,0.9669,0.9662,0.9713,0.9703,0.9698,0.975,0.9734,0.9748,0.9762,0.9735,0.9724,0.9744,0.9672,0.9699,0.9693,0.9693,0.9679,0.9669,0.966,0.9781,0.9782,0.9782,0,0,0.9558,0.9572,0.9551,0.9563,0.9582,0.9605,0.96,0.9626,0.9639,0.9623,0.9662,0.9656,0.9651,0.966,0.9664,0.9596,0.9626,0.9594,0.9547,0.9532,0.9523,0.9516,0.9493,0.9485,0.9589,0.9589,0.9589,0,0.9506,0.9499,0.9536,0.9525,0.9529,0.9578,0.9557,0.9566,0.9583,0.9584,0.9607,0.9603,0.9615,0.9592,0.9576,0.9577,0.9573,0.9592,0.9522,0.9515,0.9508,0.9487,0.9478,0.9585,0.9586,0.9586,0.9587,0,0.9436,0.943,0.9411,0.9429,0.943,0.9414,0.9449,0.9446,0.9471,0.9492,0.9476,0.9493,0.9498,0.9494,0.9517,0.9475,0.9487,0.9515,0.9554,0.9493,0.9475,0.9467,0.958,0.9581,0.9583,0.9583,0,0,0.9318,0.9358,0.9351,0.936,0.9385,0.9381,0.9367,0.9374,0.9372,0.9381,0.9371,0.9366,0.9393,0.9398,0.9422,0.9408,0.9356,0.9438,0.9439,0.9424,0.9312,0.9293,0.9283,0.9375,0.9374,0.9373,0.9312,0,0.925,0.9231,0.9266,0.9238,0.9234,0.928,0.9269,0.9282,0.9301,0.93,0.9321,0.9318,0.9352,0.9356,0.9344,0.9365,0.9334,0.9369,0.9367,0.9366,0.9364,0.9273,0.9251,0.9193,0.9305,0.9303,0.9302,0,0.9169,0.9178,0.9151,0.918,0.9179,0.9168,0.9179,0.9177,0.9193,0.9208,0.9214,0.9245,0.9233,0.927,0.9255,0.9278,0.9279,0.9289,0.9288,0.929,0.9332,0.9274,0.9175,0.9167,0.9291,0.9292,0.9292,0,0.9089,0.9093,0.9079,0.9085,0.9117,0.9109,0.9122,0.9141,0.9144,0.9152,0.9154,0.916,0.9163,0.9167,0.9197,0.9221,0.9179,0.9219,0.9192,0.9191,0.9182,0.9182,0.9083,0.9179,0.9179,0.9179,0.9179,0,0.9011,0.8993,0.9043,0.9034,0.9015,0.9055,0.9035,0.9052,0.9069,0.9064,0.9103,0.9097,0.9138,0.9136,0.9159,0.9145,0.9145,0.9157,0.9164,0.9155,0.9153,0.9157,0.9162,0.9177,0.9178,0.9178,0.9178,0,0.8918,0.8951,0.8938,0.8971,0.8979,0.8964,0.8992,0.8985,0.9007,0.9,0.9001,0.9035,0.9035,0.9067,0.9072,0.9088,0.9064,0.9077,0.9059,0.9064,0.9036,0.9039,0.8937,0.8927,0.9027,0.9026,0.9025,0,0.8868,0.8855,0.8888,0.8888,0.89,0.89,0.8904,0.8942,0.8944,0.8963,0.8953,0.8957,0.8963,0.8961,0.8986,0.8991,0.9006,0.897,0.9007,0.8999,0.9008,0.9009,0.9009,0.8963,0.8961,0.896,0.8959,0,0.8775,0.8792,0.8797,0.8808,0.8812,0.8821,0.8833,0.8831,0.8873,0.8873,0.8875,0.888,0.8887,0.8891,0.8901,0.8914,0.8944,0.8948,0.8942,0.8933,0.8924,0.8931,0.904,0.895,0.8951,0.8952,0.8952,0.8952,0.8703,0.8696,0.8718,0.8722,0.8736,0.8747,0.8743,0.8765,0.8768,0.8779,0.8801,0.88,0.8818,0.8835,0.8845,0.8845,0.8863,0.8854,0.8852,0.885,0.8846,0.8923,0.8846,0.8847,0.8847,0.8847,0.8847,0,0.8615,0.8632,0.8635,0.8653,0.8656,0.8686,0.8701,0.8702,0.8701,0.8716,0.8722,0.8725,0.8729,0.8755,0.8762,0.8757,0.8771,0.8758,0.8759,0.8762,0.8828,0.8833,0.8746,0.8746,0.8746,0.8746,0.8746,0.8746,0.8569,0.8558,0.8579,0.8575,0.8592,0.8593,0.86,0.861,0.8623,0.8625,0.863,0.8648,0.8667,0.8677,0.8682,0.869,0.8691,0.8673,0.8685,0.8747,0.8757,0.8766,0.8772,0.8673,0.8673,0.862,0.8619,0.8619]}]]